TimeMDT,TemperatureF,Dew PointF,Humidity,Sea Level PressureIn,VisibilityMPH,Wind Direction,Wind SpeedMPH,Gust SpeedMPH,PrecipitationIn,Events,Conditions,WindDirDegrees,DateUTC
12:39 AM,50.0,35.6,58,29.91,10.0,SSW,13.8,-,N/A,,Overcast,210,2012-10-13 06:39:00
12:53 AM,48.9,36.0,61,29.73,10.0,SSW,15.0,-,N/A,,Overcast,200,2012-10-13 06:53:00
1:53 AM,46.9,39.0,74,29.77,10.0,SW,9.2,-,N/A,,Overcast,230,2012-10-13 07:53:00
2:53 AM,46.9,37.9,71,29.78,10.0,SW,13.8,-,0.00,Rain,Light Rain,220,2012-10-13 08:53:00
3:53 AM,50.0,30.9,48,29.74,10.0,WNW,15.0,23.0,0.00,,Overcast,290,2012-10-13 09:53:00
4:53 AM,48.0,30.9,52,29.73,10.0,WNW,12.7,20.7,N/A,,Mostly Cloudy,300,2012-10-13 10:53:00
5:53 AM,45.0,35.1,68,29.77,10.0,WNW,11.5,26.5,0.01,,Overcast,300,2012-10-13 11:53:00
6:53 AM,43.0,36.0,76,29.81,6.0,NW,12.7,-,0.03,Rain,Light Rain,310,2012-10-13 12:53:00
7:53 AM,43.0,36.0,76,29.81,10.0,NW,15.0,21.9,0.02,Rain,Light Rain,310,2012-10-13 13:53:00
8:53 AM,46.0,35.1,66,29.80,10.0,WNW,18.4,24.2,0.00,,Overcast,300,2012-10-13 14:53:00
9:53 AM,46.0,35.1,66,29.83,9.0,NW,21.9,31.1,0.00,Rain,Light Rain,320,2012-10-13 15:53:00
10:34 AM,42.8,37.4,81,29.96,10.0,NNW,21.9,34.5,0.01,Rain,Light Rain,330,2012-10-13 16:34:00
10:53 AM,43.0,37.9,82,29.87,6.0,NW,21.9,34.5,0.01,Rain,Light Rain,320,2012-10-13 16:53:00
11:22 AM,42.8,39.2,87,29.96,5.0,NW,19.6,32.2,0.04,Rain,Light Rain,310,2012-10-13 17:22:00
11:53 AM,46.4,39.2,76,29.96,10.0,NW,18.4,33.4,N/A,Rain,Light Rain,320,2012-10-13 17:53:00
12:53 PM,52.0,41.0,66,29.82,10.0,NNW,21.9,27.6,0.00,,Overcast,330,2012-10-13 18:53:00
1:53 PM,55.0,37.9,53,29.81,10.0,North,18.4,31.1,0.00,,Overcast,360,2012-10-13 19:53:00
2:53 PM,55.0,36.0,49,29.82,10.0,NNE,13.8,24.2,N/A,,Partly Cloudy,20,2012-10-13 20:53:00
3:53 PM,57.9,37.0,46,29.82,10.0,NNW,15.0,19.6,N/A,,Scattered Clouds,340,2012-10-13 21:53:00
4:53 PM,59.0,37.0,44,29.84,10.0,NNW,19.6,28.8,N/A,,Overcast,340,2012-10-13 22:53:00
5:53 PM,51.8,37.4,58,30.04,10.0,NW,23.0,33.4,N/A,Rain,Light Rain,320,2012-10-13 23:53:00
6:08 PM,48.2,39.2,71,30.04,2.0,WNW,19.6,33.4,0.01,Rain,Light Rain,300,2012-10-14 00:08:00
6:17 PM,48.2,39.2,71,30.04,5.0,WNW,21.9,33.4,0.01,Rain,Rain,290,2012-10-14 00:17:00
6:53 PM,50.0,39.9,68,29.95,10.0,NNW,13.8,24.2,0.03,,Overcast,330,2012-10-14 00:53:00
7:53 PM,48.2,37.4,66,30.09,10.0,NNW,9.2,-,N/A,,Overcast,330,2012-10-14 01:53:00
8:53 PM,46.9,39.9,77,30.02,9.0,WNW,26.5,38.0,0.00,Rain,Light Rain,290,2012-10-14 02:53:00
9:53 PM,46.4,39.2,76,30.12,10.0,West,12.7,-,N/A,Rain,Light Rain,270,2012-10-14 03:53:00
10:53 PM,44.6,41.0,87,30.14,10.0,WNW,8.1,-,N/A,Rain,Light Rain,300,2012-10-14 04:53:00
11:53 PM,48.0,39.9,74,30.07,10.0,NNW,11.5,-,0.00,,Overcast,340,2012-10-14 05:53:00